Preisvergleich
Suchen Sie bei den großen Preisvergleich Portalen gleichzeitig! 


Sitemap2

16.7.2024 2:00

In den Sitemaps finden Sie im Meta-Preisvergleich häufig gefragte Suchworte sortiert nach der Anzahl der Anfragen.

Anfragen Suchwort Ergebnisse Datum Quellen
958mountain equipment frontier942024-06-21 00:07:0121
956iberogast4042024-07-06 00:07:0121
951split klimaanlage9482024-07-04 00:07:0121
948homematic ip12442024-06-29 00:07:0121
946raclette13702024-06-26 00:07:0121
945synology12872024-07-10 00:07:0121
944festplatte 2,57962024-06-28 00:07:0121
943thermometer15192024-07-07 00:07:0121
942bosch gts 10 xc1252024-06-25 00:07:0121
941dyson v11 absolute1982024-06-17 00:07:0121
935samsung galaxy s5 neo1512024-07-13 00:07:0221
934durgol5122024-07-04 00:07:0121
932samsung galaxy a513902024-07-08 00:07:0121
927überwachungskamera12492024-07-09 00:07:0121
926macbook air 139362024-07-06 00:07:0121
921pulsoximeter10022024-07-12 00:07:0121
917avm repeater7062024-07-16 00:07:0121
915asics kayano11522024-07-12 00:07:0121
911rolltor6752024-06-18 00:07:0121
910asics nimbus9782024-07-12 00:07:0121
904klettersteigset7832024-07-04 00:07:0121
903billardtisch9752024-06-17 00:07:0121
898boxsack12312024-06-11 00:07:0121
892sonnenschirmständer11342024-06-30 00:07:0121
889Zinkwanne5182024-07-16 00:07:0121
889multifunktionswerkzeug10802024-06-13 00:07:0221
888gefrierschrank no frost3272024-07-16 00:07:0121
888uebler i211552024-06-28 00:07:0121
886aspirin11862024-06-17 00:07:0128
883apple magic mouse5092024-06-13 00:07:0221
882minoxidil5012024-06-29 00:07:0121
880oral b precision clean5682024-07-12 00:07:0121
878google pixel 54502024-07-11 00:07:0121
877trekkingrad damen5282024-07-07 00:07:0121
871nass trockensauger13162024-07-13 00:07:0221
871canon pixma12002024-07-01 00:07:0121
870trockner15152024-06-11 00:07:0121
869lowa renegade gtx mid11232024-06-07 00:07:0121
867voltaren7402024-07-08 00:07:0121
865siemens geschirrspüler11312024-07-16 00:07:0121
862google pixel 66682024-06-22 00:07:0121
861ethanol12072024-07-08 00:07:0121
861fahrradständer11442024-06-07 00:07:0121
861grünbeck8522024-07-10 00:07:0121
860gardena schlauchwagen7762024-07-11 00:07:0121
860motorsense stihl5512024-06-13 00:07:0221
856xiaomi mi 107262024-07-04 00:07:0121
853türstopper14192024-06-11 00:07:0121
853powermatic 3972024-07-02 00:07:0221
850tolino7142024-06-26 00:07:0121
848bodenschutzmatte12762024-07-15 00:07:0121
847fritz repeater 24002812024-07-10 00:07:0121
843handsender13082024-06-19 00:07:0121
843bosch pbd 40862024-06-14 00:07:0121
843tefal optigrill8602024-07-09 00:07:0121
839rindenmulch5942024-06-26 00:07:0120
839unfair athletics7832024-06-25 00:07:0121
837messerschärfer11582024-07-13 00:07:0221
837fritz dect 2102202024-07-06 00:07:0121
833thermacare6402024-07-16 00:07:0121
832sony wf-1000xm41862024-07-10 00:07:0121
829kochplatte12262024-07-01 00:07:0121
828nike air force 110682024-07-06 00:07:0121
826led beamer8622024-06-26 00:07:0120
8253d drucker9382024-06-16 00:07:0221
820puppenhaus12132024-06-26 00:07:0121
814braun ccr1332024-06-10 00:07:0121
810fassadenfarbe10102024-07-05 00:07:0121
808logitech m7053132024-06-17 00:07:0121
806brompton3782024-06-12 00:07:0121
806avm fritz fon c5512024-07-10 00:07:0121
805nutella6982024-06-15 00:07:0121
805gummistiefel13552024-06-10 00:07:0121
803marker squire982024-06-27 00:07:0121
803iphone 8 plus6372024-06-20 00:07:0121
802repeater13132024-07-13 00:07:0221
801siemens eq62922024-07-06 00:07:0121
800campingtisch12852024-06-13 00:07:0221
800windows 10 pro12042024-07-04 00:07:0121
797new balance 57410832024-06-18 00:07:0121
796couchtisch13562024-06-29 00:07:0121
794acronis true image2242024-06-10 00:07:0121
793gopro hero9062024-06-14 00:07:0121
792velux11122024-07-04 00:07:0120
791hundeanhänger9022024-07-15 00:07:0121
789bodenstaubsauger9972024-07-08 00:07:0128
789tempur kissen4362024-06-26 00:07:0121
789gartensteckdose10042024-06-18 00:07:0121
788salomon crossmax142024-07-13 00:07:0221
788thule dachbox4432024-07-07 00:07:0121
788nintendo switch oled9182024-06-28 00:07:0121
786sony alpha 7 iii6072024-07-07 00:07:0121
786fritzfon c6352024-06-23 00:07:0121
785avm 3012502024-07-11 00:07:0121
784gigaset cl660hx2282024-07-01 00:07:0120
780adblue8682024-07-04 00:07:0121
778apple pencil 25262024-07-03 00:07:0221
777gps tracker11072024-06-11 00:07:0121
776avm fritz wlan repeater 1750e422024-06-08 00:07:0121
773kärcher k75692024-06-29 00:07:0121
773netatmo wetterstation2032024-07-01 00:07:0121
773airpods 28492024-06-23 00:07:0121
772lattenrost 140x20011162024-06-18 00:07:0121
769avm fritz fon c63102024-07-10 00:07:0121
768tischkutter1682024-06-28 00:07:0120
765fritz dect 3022192024-07-04 00:07:0121
759usb hub13452024-06-11 00:07:0121
756rtx 306011472024-06-29 00:07:0121
753ms office9322024-06-25 00:07:0121
752schneckenkorn5562024-06-23 00:07:0121
750schirmständer13562024-06-27 00:07:0121
747ecco offroad10562024-07-13 00:07:0221
746bartschneider10562024-06-27 00:07:0121
745kärcher k44722024-07-05 00:07:0121
744castrol edge 5w-306392024-06-15 00:07:0121
744vitamix4612024-06-30 00:07:0120
739venta hygienemittel602024-07-16 00:07:0121
735gtx 1060 6gb2422024-07-02 00:07:0221
730sony wh-1000xm42742024-06-27 00:07:0121
729felco 23562024-07-16 00:07:0121
727drucksprüher10882024-07-06 00:07:0121
726foliengewächshaus9782024-07-07 00:07:0121
726delonghi magnifica7302024-07-01 00:07:0121
724sony xperia v5922024-06-07 00:07:0121
721geräteschuppen11102024-06-30 00:07:0121
721bremsenentlüftungsgerät4952024-06-23 00:07:0121
720spülkasten10832024-07-11 00:07:0121
719samsung s208102024-06-15 00:07:0121
717dect 2005422024-06-29 00:07:0121
711e scooter9912024-07-13 00:07:0221
709tapeziertisch7752024-06-13 00:07:0221
706mac book10272024-06-17 00:07:0121
704kettenschärfgerät3752024-06-08 00:07:0121
703teichfolie10702024-06-28 00:07:0120
703infrarot thermometer10472024-06-30 00:07:0123
702satfinder4162024-06-17 00:07:0121
702iphone 12 128gb7942024-06-29 00:07:0121
698ds2181702024-07-13 00:07:0221
697wasserhahn13342024-07-16 00:07:0123
697fritzfon c5182024-06-16 00:07:0221
697google pixel 6a2392024-06-07 00:07:0121
695tintenstrahldrucker10122024-07-05 00:07:0121
695küchenherd5192024-06-08 00:07:0121
695klappbox11992024-07-06 00:07:0121
690daunenschlafsack8952024-07-14 00:07:0121
689wickelkommode11192024-06-08 00:07:0121
689gelomyrtol forte1962024-06-17 00:07:0121
689fotorucksack7752024-07-09 00:07:0121
689ue40f6500162024-06-27 00:07:0120
685grohe europlus5412024-06-21 00:07:0120
684google pixel 77182024-07-08 00:07:0121
682unterwasserkamera5812024-06-29 00:07:0121
682mulcher3552024-06-30 00:07:0123
681ozongenerator6702024-06-25 00:07:0121
680aeg lavamat3532024-06-17 00:07:0121
679grohtherm 10004052024-06-18 00:07:0121
679bitdefender total security5562024-07-09 00:07:0121
675omnia11842024-06-10 00:07:0121
675corona schnelltest4492024-07-09 00:07:0121
674dakine rucksack8222024-06-22 00:07:0121
674vaporizer3142024-07-03 00:07:0221
674wd60efrx462024-06-27 00:07:0121
673airtag10412024-07-16 00:07:0121
672bioalkohol692024-07-08 00:07:0121
671mini kühlschrank10822024-06-20 00:07:0121
670eiswürfelbereiter10852024-07-09 00:07:0121
669hundefutter11482024-06-12 00:07:0120
668galaxy a513822024-06-13 00:07:0221
667bücherregal14552024-06-08 00:07:0121
666worx landroid6822024-06-17 00:07:0121
665pellet13452024-07-08 00:07:0121
665fickmaschine1642024-06-28 00:07:0121
664fz10001692024-07-01 00:07:0121
6631865010012024-06-10 00:07:0121
660fahrrad montageständer6062024-06-08 00:07:0121
660davidoff cool water10012024-07-11 00:07:0121
659velux fenster10602024-07-04 00:07:0121
655keramikmesser3382024-07-08 00:07:0121
655bautrockner5792024-07-13 00:07:0221
655nivona8442024-06-16 00:07:0221
654armani code8542024-06-30 00:07:0121
652fertiggarage4442024-06-30 00:07:0121
650biofinity8382024-06-26 00:07:0120
648wasserfilter kartuschen brita5802024-06-11 00:07:0121
648getränkekühlschrank8272024-06-11 00:07:0121
645dyson am07912024-07-15 00:07:0120
641feldbett10342024-06-18 00:07:0121
640gigaset c4302422024-07-01 00:07:0121
640fritzbox 7590 ax822024-07-13 00:07:0221
639klettergurt12582024-07-04 00:07:0121
636honda rasenmäher5552024-07-13 00:07:0221
636hamsterkäfig6772024-06-18 00:07:0121
634blutdruck oberarm9072024-07-03 00:07:0220
632formoline l1122232024-06-24 00:07:0121
632cr202511582024-06-07 00:07:0121
631nike air max 909762024-07-04 00:07:0121
631iphone 13 pro7052024-07-13 00:07:0221
630voltaren forte3142024-06-29 00:07:0121
626wasser destilliergerät2542024-07-08 00:07:0121
625moto mods312024-06-28 00:07:0120
624thule easyfold xt 21202024-07-14 00:07:0121
623externe festplatte 1 tb11572024-07-15 00:07:0121
621klappsessel10692024-06-12 00:07:0121
620philips sonicare diamondclean4882024-07-13 00:07:0221
615diktiergerät10472024-06-15 00:07:0121
615strom12192024-07-01 00:07:0121
615wobenzym 800272024-07-15 00:07:0121
615birkenstock 502892024-07-15 00:07:0121
615devolo dlan 12002292024-06-15 00:07:0121
614kränzle hochdruckreiniger5812024-06-24 00:07:0121
614ortlieb vario2452024-07-07 00:07:0121
613fjällräven hose 502412024-07-15 00:07:0121
612töpferscheibe4902024-07-15 00:07:0121
612klapptritt10002024-06-21 00:07:0121
612fritzbox 6490422024-07-09 00:07:0121
612dyson airwrap complete3492024-06-13 00:07:0221
610keltican forte1992024-07-03 00:07:0221
610digitalkamera defekt1212024-06-22 00:07:0121
609vornado3882024-07-01 00:07:0121
603grohe eurodisc7412024-06-21 00:07:0121
603qlocktwo742024-06-14 00:07:0121
600gegensprechanlage9082024-07-03 00:07:0221
599samsung ssd13342024-07-05 00:07:0134
596thule fahrradträger7072024-07-06 00:07:0121
594cratoni pacer5732024-07-07 00:07:0121
594google home mini5502024-06-21 00:07:0121
591kopierpapier a4 80g8692024-07-01 00:07:0121
591hoverboard7802024-06-10 00:07:0121
590ciclopoli 6,6 ml542024-07-09 00:07:0121
587fritz box 75303072024-06-23 00:07:0121
586salomon xa pro 3d8742024-06-14 00:07:0121
586lg oled9652024-07-15 00:07:0121
584duschkopf12932024-06-20 00:07:0120
584trackball9732024-07-11 00:07:0121
583fritz box 7590 ax2622024-07-10 00:07:0121
582drehstromzähler9342024-06-23 00:07:0121
580aktentasche9422024-07-10 00:07:0121
580oventrop11602024-06-21 00:07:0121
580ipad pro 1111562024-07-02 00:07:0221
580oneplus 8 pro3252024-07-05 00:07:0119
578samsung ue40f6500182024-06-27 00:07:0121
577boxspringbett13752024-06-11 00:07:0121
577kokosöl10592024-06-08 00:07:0121
576hag capisco 81061082024-07-11 00:07:0121
572bewässerungscomputer8702024-06-22 00:07:0121
572küchenofen3582024-06-08 00:07:0121
572fresubin11842024-06-23 00:07:0121
571s23 ultra5192024-07-11 00:07:0121
570samsung s20 fe 5g3872024-07-09 00:07:0121
568lattenrost 90x20012492024-07-16 00:07:0121
568ibuprofen 4008942024-07-09 00:07:0121
567bosch smart home9602024-06-13 00:07:0221
567airpods pro 26462024-07-06 00:07:0120
564grohe eurosmart11252024-06-21 00:07:0121
564ctek mxs 101472024-06-11 00:07:0121
563ps5 konsole5792024-07-04 00:07:0121
562lg oled 653832024-06-25 00:07:0122
559deuter giga2912024-06-15 00:07:0121
559omnia backofen2712024-07-13 00:07:0221
556makita akku13102024-06-11 00:07:0121
554insektenvernichter10252024-06-29 00:07:0121
554iphone 1410752024-06-29 00:07:0121
552braun multiquick9962024-06-30 00:07:0121
550Bosch15502024-07-09 00:07:0121
550anti brumm forte1212024-07-15 00:07:0121
548dji mini 3 pro5552024-07-14 00:07:0121
547rasensamen9602024-07-14 00:07:0121
547fire tv stick 4k3472024-06-24 00:07:0121
546mikrowelle heißluft7672024-06-27 00:07:0121
545defibrillator7932024-07-16 00:07:0121
545iphone se 1284242024-07-11 00:07:0121
544sony a72872024-06-21 00:07:0121
544nikon d8503192024-07-15 00:07:0121
543kfz kennzeichen6052024-07-09 00:07:0121
543glyphosat3012024-07-15 00:07:0121
543lr aloe vera tagescreme422024-06-09 00:07:0121
543avm fritz dect 3022092024-07-04 00:07:0121
542sevylor5712024-06-26 00:07:0121
538gumotex3312024-06-18 00:07:0121
538bosch powerpack 5002112024-07-09 00:07:0121
538aeg t9de77685102024-06-27 00:07:0121
538rtx 408011772024-07-06 00:07:0121
537wlan kamera11392024-07-13 00:07:0221
537festplatte 1tb12962024-06-08 00:07:0121
536benzinkanister8772024-06-21 00:07:0121
536elektro rasenmäher9852024-07-16 00:07:0121
536lagavulin 16752024-07-11 00:07:0120
535google home11032024-06-13 00:07:0221
534pampers windeln9192024-06-23 00:07:0121
534doppelkochplatte6052024-07-02 00:07:0221
534fernseher 55 zoll9252024-06-18 00:07:0121
532dfb trikot3132024-07-08 00:07:0121
5327590 ax3182024-07-07 00:07:0121
531senseo quadrante662024-06-08 00:07:0121
531avm fritz box 7590 ax2492024-07-13 00:07:0221
530amazon fire tv stick4262024-06-14 00:07:0121
529hp 564412024-07-08 00:07:0121
529samsung galaxy s21 ultra 5g3672024-07-01 00:07:0121
528ghettoblaster4962024-07-11 00:07:0121
528gigaset duo8162024-06-21 00:07:0121
527güde holzspalter3252024-07-10 00:07:0121
526marantz sr2222024-07-14 00:07:0121
526logitech k800732024-07-16 00:07:0121
526epson ecotank12932024-06-12 00:07:0121
anzahl 304 xml 304


Preisvergleich
Wichtige Information zu den Preisangaben: Alle Preise verstehen sich inklusive der gesetzlichen Mehrwertsteuer und gegebebenfalls zuzüglich Versandkosten. Zum Zeitpunkt des Kaufes ist der aktuell auf der Händlerseite angegebene Preis maßgeblich. Bitte beachten Sie, dass aus technischen Gründen zeitweise Abweichungen, des Preises, der Lieferbarkeit und der Versandkosten entstehen können.

Affiliate-Offenlegung: Wenn Sie auf dieser Website auf Links zu verschiedenen Händlern klicken und einen Kauf tätigen, kann dies dazu führen, dass diese Website eine Provision erhält. Zu den Partnerprogrammen und Partnerschaften gehört unter anderem das eBay Partner Network. Als Amazon-Partner verdienen wir an qualifizierten Verkäufen.
Impressum / Datenschutzerklärung     Presse     Shops    
Copyright © 2003-2024 MetaMind GmbH